International Skating Union - Official Site

ISU World Cup Salt Lake City
November 20-22, 2015

Draw | Lap Times | Index | World Cup

Referee: Dan  IMMERFALL  (USA)
Starter: Darrell  HAACK  (CAN)
StartTime: EndTime: Air Temp: Ice Temp: Humidity:
13:00 14:47 17.8℃ -12.5℃ 19
Result 10000m Men Division A
Rankings as of Nov 22 2015 4:19PM
Rank: No.: Name: Nation: Time: Behind: Points:
1 9 Ted-Jan  Bloemen CAN CAN 12:36.30400m - 33.54 - (33.5)
800m - 1:03.19 - (29.6)
1200m - 1:33.22 - (30.0)
1600m - 2:03.41 - (30.1)
2000m - 2:33.46 - (30.0)
2400m - 3:03.57 - (30.1)
2800m - 3:33.80 - (30.2)
3200m - 4:03.81 - (30.0)
3600m - 4:33.94 - (30.1)
4000m - 5:03.94 - (30.0)
4400m - 5:33.91 - (29.9)
4800m - 6:04.04 - (30.1)
5200m - 6:34.22 - (30.1)
5600m - 7:04.18 - (29.9)
6000m - 7:34.27 - (30.0)
6400m - 8:04.23 - (29.9)
6800m - 8:34.09 - (29.8)
7200m - 9:04.00 - (29.9)
7600m - 9:34.15 - (30.1)
8000m - 10:04.30 - (30.1)
8400m - 10:34.65 - (30.3)
8800m - 11:04.81 - (30.1)
9200m - 11:35.13 - (30.3)
9600m - 12:05.51 - (30.3)
10000m - 12:36.30 - (30.7)
100
2 85 Sven  Kramer NED NED 12:44.26400m - 34.20 - (34.2)
800m - 1:04.55 - (30.3)
1200m - 1:34.67 - (30.1)
1600m - 2:04.71 - (30.0)
2000m - 2:34.90 - (30.1)
2400m - 3:05.02 - (30.1)
2800m - 3:35.52 - (30.5)
3200m - 4:05.86 - (30.3)
3600m - 4:36.47 - (30.6)
4000m - 5:06.47 - (30.0)
4400m - 5:36.99 - (30.5)
4800m - 6:07.23 - (30.2)
5200m - 6:37.57 - (30.3)
5600m - 7:07.78 - (30.2)
6000m - 7:38.06 - (30.2)
6400m - 8:08.29 - (30.2)
6800m - 8:39.10 - (30.8)
7200m - 9:09.35 - (30.2)
7600m - 9:40.09 - (30.7)
8000m - 10:10.95 - (30.8)
8400m - 10:41.51 - (30.5)
8800m - 11:12.41 - (30.9)
9200m - 11:42.80 - (30.3)
9600m - 12:13.41 - (30.6)
10000m - 12:44.26 - (30.8)
7.96 80
3 78 Jorrit  Bergsma NED NED 12:53.99400m - 34.60 - (34.6)
800m - 1:04.50 - (29.9)
1200m - 1:34.36 - (29.8)
1600m - 2:04.42 - (30.0)
2000m - 2:34.22 - (29.8)
2400m - 3:04.49 - (30.2)
2800m - 3:34.39 - (29.9)
3200m - 4:04.30 - (29.9)
3600m - 4:34.19 - (29.8)
4000m - 5:04.19 - (30.0)
4400m - 5:34.24 - (30.0)
4800m - 6:04.23 - (29.9)
5200m - 6:34.11 - (29.8)
5600m - 7:04.21 - (30.1)
6000m - 7:34.24 - (30.0)
6400m - 8:04.39 - (30.1)
6800m - 8:34.69 - (30.3)
7200m - 9:05.24 - (30.5)
7600m - 9:35.79 - (30.5)
8000m - 10:06.61 - (30.8)
8400m - 10:37.74 - (31.1)
8800m - 11:09.54 - (31.8)
9200m - 11:42.82 - (33.2)
9600m - 12:18.01 - (35.1)
10000m - 12:53.99 - (35.9)
17.69 70
4 37 Patrick  Beckert GER GER 12:55.01400m - 34.49 - (34.4)
800m - 1:04.52 - (30.0)
1200m - 1:35.56 - (31.0)
1600m - 2:06.80 - (31.2)
2000m - 2:38.00 - (31.2)
2400m - 3:09.16 - (31.1)
2800m - 3:40.19 - (31.0)
3200m - 4:11.18 - (30.9)
3600m - 4:42.10 - (30.9)
4000m - 5:13.14 - (31.0)
4400m - 5:44.16 - (31.0)
4800m - 6:15.34 - (31.1)
5200m - 6:46.32 - (30.9)
5600m - 7:17.49 - (31.1)
6000m - 7:48.57 - (31.0)
6400m - 8:19.50 - (30.9)
6800m - 8:50.24 - (30.7)
7200m - 9:21.28 - (31.0)
7600m - 9:52.02 - (30.7)
8000m - 10:22.91 - (30.8)
8400m - 10:53.82 - (30.9)
8800m - 11:24.66 - (30.8)
9200m - 11:55.13 - (30.4)
9600m - 12:25.08 - (29.9)
10000m - 12:55.01 - (29.9)
18.71 60
5 4 Bart  Swings BEL BEL 12:57.31400m - 34.23 - (34.2)
800m - 1:04.93 - (30.7)
1200m - 1:36.07 - (31.1)
1600m - 2:07.15 - (31.0)
2000m - 2:38.19 - (31.0)
2400m - 3:09.60 - (31.4)
2800m - 3:40.62 - (31.0)
3200m - 4:11.63 - (31.0)
3600m - 4:42.58 - (30.9)
4000m - 5:13.57 - (30.9)
4400m - 5:44.22 - (30.6)
4800m - 6:14.83 - (30.6)
5200m - 6:45.49 - (30.6)
5600m - 7:16.18 - (30.6)
6000m - 7:46.72 - (30.5)
6400m - 8:17.35 - (30.6)
6800m - 8:47.83 - (30.4)
7200m - 9:18.43 - (30.6)
7600m - 9:49.15 - (30.7)
8000m - 10:19.93 - (30.7)
8400m - 10:50.65 - (30.7)
8800m - 11:21.81 - (31.1)
9200m - 11:53.29 - (31.4)
9600m - 12:25.04 - (31.7)
10000m - 12:57.31 - (32.2)
21.01 50
6 99 Peter  Michael NZL NZL 12:58.07400m - 35.32 - (35.3)
800m - 1:06.22 - (30.9)
1200m - 1:37.08 - (30.8)
1600m - 2:08.59 - (31.5)
2000m - 2:39.02 - (30.4)
2400m - 3:09.98 - (30.9)
2800m - 3:41.04 - (31.0)
3200m - 4:12.11 - (31.0)
3600m - 4:43.01 - (30.9)
4000m - 5:14.38 - (31.3)
4400m - 5:45.30 - (30.9)
4800m - 6:16.41 - (31.1)
5200m - 6:47.63 - (31.2)
5600m - 7:18.36 - (30.7)
6000m - 7:49.46 - (31.1)
6400m - 8:20.67 - (31.2)
6800m - 8:51.91 - (31.2)
7200m - 9:22.84 - (30.9)
7600m - 9:53.92 - (31.0)
8000m - 10:24.76 - (30.8)
8400m - 10:55.52 - (30.7)
8800m - 11:26.42 - (30.9)
9200m - 11:57.37 - (30.9)
9600m - 12:28.23 - (30.8)
10000m - 12:58.07 - (29.8)
21.77 45
7 84 Erik Jan  Kooiman NED NED 12:58.24400m - 34.99 - (34.9)
800m - 1:04.99 - (30.0)
1200m - 1:35.55 - (30.5)
1600m - 2:05.92 - (30.3)
2000m - 2:36.21 - (30.2)
2400m - 3:06.25 - (30.0)
2800m - 3:36.54 - (30.2)
3200m - 4:06.78 - (30.2)
3600m - 4:37.40 - (30.6)
4000m - 5:07.79 - (30.3)
4400m - 5:38.39 - (30.6)
4800m - 6:08.97 - (30.5)
5200m - 6:39.77 - (30.8)
5600m - 7:10.44 - (30.6)
6000m - 7:41.33 - (30.8)
6400m - 8:12.26 - (30.9)
6800m - 8:43.52 - (31.2)
7200m - 9:14.70 - (31.1)
7600m - 9:46.20 - (31.5)
8000m - 10:18.09 - (31.8)
8400m - 10:50.33 - (32.2)
8800m - 11:22.61 - (32.2)
9200m - 11:55.37 - (32.7)
9600m - 12:26.97 - (31.6)
10000m - 12:58.24 - (31.2)
21.94 40
8 46 Andrea  Giovannini ITA ITA 13:07.20400m - 34.26 - (34.2)
800m - 1:05.12 - (30.8)
1200m - 1:37.04 - (31.9)
1600m - 2:08.20 - (31.1)
2000m - 2:39.53 - (31.3)
2400m - 3:10.58 - (31.0)
2800m - 3:41.74 - (31.1)
3200m - 4:12.62 - (30.8)
3600m - 4:44.07 - (31.4)
4000m - 5:15.44 - (31.3)
4400m - 5:46.80 - (31.3)
4800m - 6:18.20 - (31.4)
5200m - 6:49.53 - (31.3)
5600m - 7:20.99 - (31.4)
6000m - 7:52.43 - (31.4)
6400m - 8:23.81 - (31.3)
6800m - 8:54.93 - (31.1)
7200m - 9:25.98 - (31.0)
7600m - 9:57.22 - (31.2)
8000m - 10:28.63 - (31.4)
8400m - 11:00.04 - (31.4)
8800m - 11:31.62 - (31.5)
9200m - 12:03.31 - (31.6)
9600m - 12:35.11 - (31.8)
10000m - 13:07.20 - (32.0)
30.90 35
9 8 Jordan  Belchos CAN CAN 13:09.06400m - 34.43 - (34.4)
800m - 1:03.86 - (29.4)
1200m - 1:33.70 - (29.8)
1600m - 2:03.87 - (30.1)
2000m - 2:33.78 - (29.9)
2400m - 3:03.88 - (30.1)
2800m - 3:34.23 - (30.3)
3200m - 4:04.72 - (30.4)
3600m - 4:35.53 - (30.8)
4000m - 5:06.51 - (30.9)
4400m - 5:37.59 - (31.0)
4800m - 6:09.08 - (31.4)
5200m - 6:40.63 - (31.5)
5600m - 7:12.50 - (31.8)
6000m - 7:44.60 - (32.1)
6400m - 8:16.83 - (32.2)
6800m - 8:49.08 - (32.2)
7200m - 9:21.53 - (32.4)
7600m - 9:54.17 - (32.6)
8000m - 10:26.57 - (32.4)
8400m - 10:58.86 - (32.2)
8800m - 11:31.33 - (32.4)
9200m - 12:04.22 - (32.8)
9600m - 12:36.88 - (32.6)
10000m - 13:09.06 - (32.1)
32.76 30
10 97 Sverre  Lunde Pedersen NOR NOR 13:09.79400m - 34.59 - (34.5)
800m - 1:05.47 - (30.8)
1200m - 1:36.72 - (31.2)
1600m - 2:08.18 - (31.4)
2000m - 2:39.38 - (31.2)
2400m - 3:10.79 - (31.4)
2800m - 3:41.96 - (31.1)
3200m - 4:13.21 - (31.2)
3600m - 4:44.31 - (31.1)
4000m - 5:15.39 - (31.0)
4400m - 5:46.49 - (31.1)
4800m - 6:17.61 - (31.1)
5200m - 6:48.63 - (31.0)
5600m - 7:19.92 - (31.2)
6000m - 7:51.13 - (31.2)
6400m - 8:22.39 - (31.2)
6800m - 8:53.65 - (31.2)
7200m - 9:24.91 - (31.2)
7600m - 9:56.28 - (31.3)
8000m - 10:27.69 - (31.4)
8400m - 10:59.05 - (31.3)
8800m - 11:30.60 - (31.5)
9200m - 12:02.52 - (31.9)
9600m - 12:35.36 - (32.8)
10000m - 13:09.79 - (34.4)
33.49 25
11 36 Alexis  Contin FRA FRA 13:34.79400m - 34.69 - (34.6)
800m - 1:05.49 - (30.8)
1200m - 1:37.10 - (31.6)
1600m - 2:08.32 - (31.2)
2000m - 2:39.40 - (31.0)
2400m - 3:10.76 - (31.3)
2800m - 3:42.13 - (31.3)
3200m - 4:13.49 - (31.3)
3600m - 4:44.83 - (31.3)
4000m - 5:16.18 - (31.3)
4400m - 5:47.54 - (31.3)
4800m - 6:19.38 - (31.8)
5200m - 6:50.76 - (31.3)
5600m - 7:22.60 - (31.8)
6000m - 7:54.43 - (31.8)
6400m - 8:26.54 - (32.1)
6800m - 8:58.84 - (32.3)
7200m - 9:31.76 - (32.9)
7600m - 10:05.49 - (33.7)
8000m - 10:40.10 - (34.6)
8400m - 11:15.24 - (35.1)
8800m - 11:50.31 - (35.0)
9200m - 12:25.15 - (34.8)
9600m - 13:00.05 - (34.9)
10000m - 13:34.79 - (34.7)
58.49 21
12 115 Aleksandr  Rumyantsev RUS RUS DNF400m - 35.33 - (35.3)
800m - 1:06.47 - (31.1)
1200m - 1:38.02 - (31.5)
1600m - 2:09.08 - (31.0)
2000m - 2:40.16 - (31.0)
2400m - 3:11.03 - (30.8)
2800m - 3:42.24 - (31.2)
3200m - 4:13.55 - (31.3)
3600m - 4:45.07 - (31.5)
4000m - 5:16.77 - (31.7)
4400m - 5:48.73 - (31.9)
4800m - 6:20.51 - (31.7)
5200m - 6:52.37 - (31.8)
5600m - 7:24.48 - (32.1)
6000m - 7:56.77 - (32.2)
6400m - 8:29.66 - (32.8)
6800m - 9:02.72 - (33.0)
7200m - 9:35.71 - (32.9)
7600m - 10:08.96 - (33.2)
8000m - 10:58.86 - (49.9)
8400m - 12:36.88 - (98.0)
0